Land O' Lakes, WI

5:21 AM CDT on April 27, 2017 (GMT -0500)
Kings Land O'Lakes

Weather History for KLNL - August, 2014

Change the Weather History Date:

Wednesday, August 27, 2014

  Actual Average (KEGV) Record (KEGV)
Temperature  
Mean Temperature 56 °F -  
Max Temperature 69 °F 76 °F 88 °F (1991)
Min Temperature 42 °F 59 °F 33 °F (2001)
Degree Days  
Heating Degree Days 10    
Growing Degree Days 6 (Base 50)    
Moisture  
Dew Point 48 °F    
Average Humidity 77    
Maximum Humidity 100    
Minimum Humidity 40    
Precipitation  
Precipitation 0.06 in - - ()
Sea Level Pressure  
Sea Level Pressure 30.20 in    
Wind  
Wind Speed 2 mph (NW)    
Max Wind Speed 12 mph    
Max Gust Speed -    
Visibility 10 miles    
Events Rain    
Averages and records for this station are not official NWS values.
T = Trace of Precipitation, MM = Missing Value Source: NWS Daily Summary

Daily Weather History Graph

Daily Weather History Graph

Search for Another Location

Airport or City:

Trip Planner

Search our weather history database for the weather conditions in past years. The results will help you decide how hot, cold, wet, or windy it might be!

Date:

Astronomy

Aug. 27, 2014 Rise Set
Actual Time 6:11 AM CDT 7:44 PM CDT
Civil Twilight 5:39 AM CDT 8:15 PM CDT
Nautical Twilight 5:01 AM CDT 8:54 PM CDT
Astronomical Twilight 4:20 AM CDT 9:34 PM CDT
Moon 8:16 AM CDT 8:26 PM CDT
Length of Visible Light 14h 36m
Length of Day
13h 33m
Waxing Crescent, 4% of the Moon is Illuminated
Aug 27
Waxing Crescent
Sep 2
First Quarter
Sep 8
Full
Sep 15
Last Quarter
Sep 24
New

Hourly Weather History & Observations

Time (CDT) Temp. Dew Point Humidity Pressure Visibility Wind Dir Wind Speed Gust Speed Precip Events Conditions
12:15 AM 47.8 °F 47.5 °F 99% 30.18 in 10.0 mi Calm Calm - N/A   Clear
12:35 AM 48.6 °F 48.2 °F 99% 30.18 in 10.0 mi Calm Calm - N/A   Clear
12:55 AM 49.3 °F 49.1 °F 99% 30.19 in 10.0 mi Calm Calm - N/A   Scattered Clouds
1:15 AM 49.5 °F 49.3 °F 99% 30.19 in 10.0 mi Calm Calm - N/A   Mostly Cloudy
1:35 AM 50.4 °F 50.2 °F 99% 30.19 in 10.0 mi Calm Calm - N/A   Scattered Clouds
1:55 AM 50.9 °F 50.9 °F 100% 30.19 in 7.0 mi Calm Calm - 0.01 in Rain Rain
2:15 AM 51.4 °F 51.3 °F 99% 30.20 in 7.0 mi Calm Calm - 0.04 in Rain Rain
2:35 AM 52.7 °F 52.5 °F 99% 30.20 in 10.0 mi Calm Calm - 0.04 in   Overcast
2:55 AM 53.1 °F 52.7 °F 99% 30.19 in 10.0 mi Calm Calm - 0.04 in   Overcast
3:15 AM 52.5 °F 52.2 °F 99% 30.19 in 10.0 mi Calm Calm - N/A Rain Light Rain
3:35 AM 52.9 °F 52.7 °F 99% 30.17 in 10.0 mi Calm Calm - 0.01 in Rain Rain
3:55 AM 52.7 °F 52.3 °F 99% 30.19 in 10.0 mi Calm Calm - 0.01 in Rain Light Rain
4:15 AM 52.9 °F 52.7 °F 99% 30.18 in 10.0 mi Calm Calm - N/A Rain Light Rain
4:35 AM 52.2 °F 52.0 °F 99% 30.19 in 10.0 mi Calm Calm - N/A   Scattered Clouds
4:55 AM 51.1 °F 50.9 °F 99% 30.18 in 4.0 mi Calm Calm - N/A   Clear
5:15 AM 51.1 °F 50.9 °F 99% 30.18 in 1.5 mi Calm Calm - N/A   Scattered Clouds
5:35 AM 51.4 °F 51.4 °F 100% 30.19 in 10.0 mi Calm Calm - N/A   Mostly Cloudy
5:55 AM 51.4 °F 51.4 °F 100% 30.20 in 10.0 mi Calm Calm - N/A   Overcast
6:15 AM 52.7 °F 52.7 °F 100% 30.20 in 10.0 mi Calm Calm - N/A   Overcast
6:35 AM 51.3 °F 51.3 °F 100% 30.20 in 10.0 mi Calm Calm - N/A   Overcast
6:55 AM 50.9 °F 50.9 °F 100% 30.20 in 10.0 mi Calm Calm - N/A   Scattered Clouds
7:15 AM 52.9 °F 52.9 °F 100% 30.20 in 10.0 mi Calm Calm - N/A   Scattered Clouds
7:35 AM 54.0 °F 54.0 °F 100% 30.21 in 10.0 mi Calm Calm - N/A   Mostly Cloudy
7:55 AM 55.0 °F 53.1 °F 93% 30.21 in 10.0 mi NNW 3.5 mph - N/A   Scattered Clouds
8:15 AM 56.3 °F 50.7 °F 82% 30.22 in 10.0 mi North 5.8 mph - N/A   Scattered Clouds
8:35 AM 57.2 °F 50.5 °F 78% 30.22 in 10.0 mi NNE 5.8 mph - N/A   Clear
8:55 AM 57.7 °F 49.3 °F 73% 30.21 in 10.0 mi NNE 4.6 mph - N/A   Clear
9:15 AM 58.5 °F 49.5 °F 72% 30.22 in 10.0 mi North 3.5 mph - N/A   Clear
9:35 AM 59.2 °F 49.6 °F 71% 30.22 in 10.0 mi NW 5.8 mph - N/A   Scattered Clouds
9:55 AM 58.6 °F 48.7 °F 70% 30.23 in 10.0 mi NNW 3.5 mph - N/A   Overcast
10:15 AM 60.6 °F 48.4 °F 64% 30.23 in 10.0 mi NW 3.5 mph - N/A   Overcast
10:55 AM 60.1 °F 48.6 °F 66% 30.23 in 10.0 mi West 4.6 mph - N/A   Overcast
11:15 AM 60.4 °F 47.1 °F 61% 30.22 in 10.0 mi Calm Calm - N/A   Overcast
11:35 AM 61.7 °F 48.0 °F 61% 30.23 in 10.0 mi Calm Calm - N/A   Mostly Cloudy
11:55 AM 63.1 °F 46.9 °F 55% 30.22 in 10.0 mi Calm Calm - N/A   Mostly Cloudy
12:15 PM 62.8 °F 46.6 °F 55% 30.22 in 10.0 mi North 4.6 mph - N/A   Mostly Cloudy
12:35 PM 65.3 °F 46.9 °F 51% 30.22 in 10.0 mi WSW 4.6 mph - N/A   Scattered Clouds
12:55 PM 64.6 °F 47.7 °F 54% 30.22 in 10.0 mi SSW 4.6 mph - N/A   Scattered Clouds
1:15 PM 64.6 °F 46.0 °F 51% 30.22 in 10.0 mi WNW 3.5 mph - N/A   Scattered Clouds
1:35 PM 65.3 °F 46.8 °F 51% 30.22 in 10.0 mi Calm Calm - N/A   Scattered Clouds
1:55 PM 67.5 °F 47.5 °F 49% 30.21 in 10.0 mi NW 8.1 mph - N/A   Mostly Cloudy
2:15 PM 67.1 °F 45.1 °F 45% 30.21 in 10.0 mi West 4.6 mph - N/A   Scattered Clouds
2:35 PM 68.5 °F 47.1 °F 46% 30.19 in 10.0 mi West 8.1 mph - N/A   Scattered Clouds
2:55 PM 68.7 °F 47.1 °F 46% 30.19 in 10.0 mi NNW 9.2 mph - N/A   Mostly Cloudy
3:15 PM 68.5 °F 46.9 °F 46% 30.20 in 10.0 mi NNW 9.2 mph - N/A   Scattered Clouds
3:35 PM 68.9 °F 45.3 °F 43% 30.20 in 10.0 mi WNW 8.1 mph - N/A   Clear
3:55 PM 68.5 °F 45.5 °F 44% 30.19 in 10.0 mi West 8.1 mph - N/A   Clear
4:15 PM 68.7 °F 45.0 °F 42% 30.18 in 10.0 mi NNW 8.1 mph - N/A   Clear
4:35 PM 68.7 °F 45.7 °F 44% 30.18 in 10.0 mi WNW 3.5 mph - N/A   Clear
4:55 PM 68.5 °F 43.7 °F 41% 30.18 in 10.0 mi West 6.9 mph - N/A   Clear
5:15 PM 68.2 °F 42.8 °F 40% 30.18 in 10.0 mi NW 5.8 mph - N/A   Clear
5:35 PM 68.0 °F 43.5 °F 41% 30.18 in 10.0 mi NW 5.8 mph - N/A   Clear
5:55 PM 66.4 °F 47.1 °F 50% 30.18 in 10.0 mi NNW 6.9 mph - N/A   Clear
6:15 PM 65.5 °F 46.4 °F 50% 30.18 in 10.0 mi North 10.4 mph - N/A   Clear
6:35 PM 64.0 °F 46.9 °F 54% 30.18 in 10.0 mi North 11.5 mph - N/A   Clear
6:55 PM 62.8 °F 48.6 °F 60% 30.18 in 10.0 mi North 8.1 mph - N/A   Clear
7:15 PM 61.5 °F 46.8 °F 58% 30.18 in 10.0 mi North 5.8 mph - N/A   Clear
7:35 PM 59.0 °F 46.2 °F 63% 30.18 in 10.0 mi NNW 5.8 mph - N/A   Clear
7:55 PM 56.7 °F 46.6 °F 69% 30.19 in 10.0 mi Calm Calm - N/A   Clear
8:15 PM 53.1 °F 48.0 °F 83% 30.19 in 10.0 mi Calm Calm - N/A   Clear
8:35 PM 49.6 °F 47.5 °F 92% 30.19 in 10.0 mi Calm Calm - N/A   Clear
8:55 PM 49.1 °F 47.5 °F 94% 30.20 in 10.0 mi Calm Calm - N/A   Clear
9:15 PM 47.7 °F 46.4 °F 95% 30.20 in 10.0 mi Calm Calm - N/A   Clear
9:35 PM 46.9 °F 45.7 °F 95% 30.20 in 10.0 mi Calm Calm - N/A   Clear
9:55 PM 46.4 °F 45.3 °F 96% 30.20 in 10.0 mi Calm Calm - N/A   Clear
10:15 PM 45.5 °F 44.8 °F 97% 30.19 in 10.0 mi Calm Calm - N/A   Clear
10:35 PM 44.6 °F 43.9 °F 97% 30.20 in 10.0 mi Calm Calm - N/A   Clear
10:55 PM 44.1 °F 43.7 °F 99% 30.20 in 10.0 mi Calm Calm - N/A   Clear
11:15 PM 43.7 °F 43.3 °F 99% 30.20 in 10.0 mi Calm Calm - N/A   Clear
11:35 PM 43.3 °F 43.0 °F 99% 30.20 in 5.0 mi Calm Calm - N/A   Clear
11:55 PM 42.8 °F 42.8 °F 100% 30.20 in 7.0 mi Calm Calm - N/A   Clear